TimeCDT,TemperatureF,Dew PointF,Humidity,Sea Level PressureIn,VisibilityMPH,Wind Direction,Wind SpeedMPH,Gust SpeedMPH,PrecipitationIn,Events,Conditions,WindDirDegrees,DateUTC
12:15 AM,55.0,46.9,74,29.93,10.0,South,10.4,-,N/A,,Clear,190,2013-04-28 05:15:00
12:35 AM,54.5,47.3,77,29.93,10.0,South,10.4,-,N/A,,Clear,190,2013-04-28 05:35:00
12:55 AM,54.1,47.7,79,29.93,10.0,South,8.1,-,N/A,,Clear,190,2013-04-28 05:55:00
1:15 AM,54.0,48.0,80,29.93,10.0,SSW,11.5,-,N/A,,Clear,200,2013-04-28 06:15:00
1:35 AM,53.8,48.0,81,29.93,10.0,SSW,8.1,-,N/A,,Clear,200,2013-04-28 06:35:00
1:55 AM,52.2,47.7,85,29.93,10.0,SSW,8.1,-,N/A,,Clear,200,2013-04-28 06:55:00
2:15 AM,52.0,48.0,86,29.92,10.0,SSW,9.2,-,N/A,,Clear,200,2013-04-28 07:15:00
2:35 AM,51.8,48.2,88,29.92,10.0,SSW,8.1,-,N/A,,Clear,210,2013-04-28 07:35:00
2:55 AM,51.4,48.4,89,29.91,10.0,SSW,8.1,-,N/A,,Clear,200,2013-04-28 07:55:00
3:15 AM,50.9,48.4,91,29.91,10.0,SSW,8.1,-,N/A,,Clear,200,2013-04-28 08:15:00
3:35 AM,51.1,48.9,92,29.90,10.0,SSW,6.9,-,N/A,,Clear,200,2013-04-28 08:35:00
3:55 AM,50.4,48.7,94,29.90,10.0,South,8.1,-,N/A,,Clear,190,2013-04-28 08:55:00
4:15 AM,50.9,49.3,94,29.89,10.0,South,8.1,-,N/A,,Clear,190,2013-04-28 09:15:00
4:35 AM,51.3,49.8,95,29.89,10.0,South,8.1,-,N/A,,Clear,190,2013-04-28 09:35:00
4:55 AM,50.2,49.1,96,29.89,10.0,SSW,9.2,-,N/A,,Clear,200,2013-04-28 09:55:00
5:15 AM,50.4,49.8,98,29.88,10.0,SSW,10.4,-,N/A,,Clear,200,2013-04-28 10:15:00
5:35 AM,50.9,50.0,97,29.88,10.0,South,9.2,-,N/A,,Clear,190,2013-04-28 10:35:00
5:55 AM,50.0,49.5,98,29.88,10.0,South,6.9,-,N/A,,Clear,190,2013-04-28 10:55:00
6:15 AM,49.8,49.5,99,29.87,10.0,South,8.1,-,N/A,,Clear,180,2013-04-28 11:15:00
6:35 AM,49.3,49.3,100,29.87,7.0,South,9.2,-,N/A,,Clear,180,2013-04-28 11:35:00
6:55 AM,49.3,49.3,100,29.86,7.0,South,9.2,-,N/A,,Clear,180,2013-04-28 11:55:00
7:15 AM,50.0,50.0,100,29.86,7.0,South,8.1,-,N/A,,Clear,180,2013-04-28 12:15:00
7:35 AM,50.0,50.0,100,29.87,7.0,South,9.2,-,N/A,,Clear,190,2013-04-28 12:35:00
8:15 AM,53.6,51.3,92,29.86,10.0,SSW,12.7,17.3,N/A,,Clear,200,2013-04-28 13:15:00
8:35 AM,55.8,51.8,87,29.85,10.0,SSW,11.5,17.3,N/A,,Clear,200,2013-04-28 13:35:00
8:55 AM,58.1,52.0,80,29.85,10.0,SSW,15.0,18.4,N/A,,Clear,200,2013-04-28 13:55:00
9:15 AM,60.3,52.0,74,29.84,10.0,SSW,15.0,21.9,N/A,,Clear,200,2013-04-28 14:15:00
9:35 AM,62.4,52.2,69,29.83,10.0,SSW,16.1,23.0,N/A,,Clear,200,2013-04-28 14:35:00
9:55 AM,63.7,51.4,64,29.82,10.0,SSW,18.4,-,N/A,,Clear,200,2013-04-28 14:55:00
10:15 AM,65.3,51.6,61,29.82,10.0,SSW,16.1,-,N/A,,Clear,200,2013-04-28 15:15:00
10:35 AM,67.1,51.1,56,29.82,10.0,SSW,17.3,20.7,N/A,,Clear,200,2013-04-28 15:35:00
10:55 AM,68.5,50.4,52,29.81,10.0,SSW,17.3,21.9,N/A,,Clear,210,2013-04-28 15:55:00
11:15 AM,70.0,50.4,50,29.81,10.0,SW,15.0,20.7,N/A,,Clear,220,2013-04-28 16:15:00
11:35 AM,71.2,50.2,47,29.80,10.0,SSW,12.7,-,N/A,,Clear,200,2013-04-28 16:35:00
11:55 AM,73.0,49.3,43,29.80,10.0,South,13.8,19.6,N/A,,Clear,190,2013-04-28 16:55:00
12:15 PM,74.1,49.1,41,29.79,10.0,SSW,16.1,19.6,N/A,,Clear,200,2013-04-28 17:15:00
12:35 PM,76.1,48.6,38,29.79,10.0,South,13.8,19.6,N/A,,Clear,190,2013-04-28 17:35:00
12:55 PM,77.0,45.9,33,29.77,10.0,South,13.8,-,N/A,,Clear,190,2013-04-28 17:55:00
1:15 PM,79.0,44.6,30,29.76,10.0,South,13.8,19.6,N/A,,Clear,190,2013-04-28 18:15:00
1:35 PM,79.9,43.7,28,29.76,10.0,South,11.5,17.3,N/A,,Clear,190,2013-04-28 18:35:00
1:55 PM,81.9,45.3,28,29.75,10.0,SSW,13.8,17.3,N/A,,Clear,200,2013-04-28 18:55:00
2:15 PM,81.3,44.4,27,29.74,10.0,South,11.5,16.1,N/A,,Clear,190,2013-04-28 19:15:00
2:35 PM,82.0,43.5,26,29.74,10.0,SSW,13.8,18.4,N/A,,Clear,210,2013-04-28 19:35:00
2:55 PM,83.5,42.6,24,29.73,10.0,South,12.7,18.4,N/A,,Clear,180,2013-04-28 19:55:00
3:15 PM,84.2,44.1,24,29.72,10.0,SW,16.1,20.7,N/A,,Clear,220,2013-04-28 20:15:00
3:35 PM,84.7,41.9,22,29.72,10.0,SSW,18.4,21.9,N/A,,Clear,200,2013-04-28 20:35:00
3:55 PM,85.3,43.7,23,29.71,10.0,South,17.3,23.0,N/A,,Clear,190,2013-04-28 20:55:00
4:15 PM,84.0,43.5,24,29.71,10.0,South,16.1,26.5,N/A,,Clear,190,2013-04-28 21:15:00
4:35 PM,83.5,44.1,25,29.70,10.0,SSW,19.6,26.5,N/A,,Clear,200,2013-04-28 21:35:00
4:55 PM,83.8,46.4,27,29.70,10.0,SSW,15.0,26.5,N/A,,Clear,200,2013-04-28 21:55:00
5:15 PM,82.4,46.9,29,29.69,10.0,South,13.8,21.9,N/A,,Clear,190,2013-04-28 22:15:00
5:35 PM,81.7,46.9,30,29.69,10.0,South,11.5,-,N/A,,Clear,190,2013-04-28 22:35:00
5:55 PM,82.6,47.3,29,29.68,10.0,South,11.5,-,N/A,,Clear,190,2013-04-28 22:55:00
6:15 PM,82.8,47.3,29,29.67,10.0,South,12.7,19.6,N/A,,Clear,180,2013-04-28 23:15:00
6:35 PM,82.2,47.3,29,29.67,10.0,South,15.0,-,N/A,,Clear,180,2013-04-28 23:35:00
6:55 PM,81.1,48.2,32,29.67,10.0,South,13.8,20.7,N/A,,Clear,190,2013-04-28 23:55:00
7:35 PM,78.1,50.9,39,29.67,10.0,South,12.7,-,N/A,,Clear,190,2013-04-29 00:35:00
7:55 PM,76.8,51.1,40,29.68,10.0,South,9.2,-,N/A,,Clear,180,2013-04-29 00:55:00
8:15 PM,75.4,51.8,44,29.69,10.0,South,10.4,-,N/A,,Clear,170,2013-04-29 01:15:00
8:35 PM,73.6,52.2,47,29.70,10.0,South,8.1,-,N/A,,Clear,180,2013-04-29 01:35:00
8:55 PM,72.5,52.2,49,29.71,10.0,South,5.8,-,N/A,,Clear,180,2013-04-29 01:55:00
9:15 PM,66.0,50.7,58,29.72,10.0,ENE,3.5,-,N/A,,Clear,70,2013-04-29 02:15:00
9:35 PM,63.9,50.5,62,29.74,10.0,NW,8.1,-,N/A,,Clear,320,2013-04-29 02:35:00
9:55 PM,63.7,50.9,63,29.76,10.0,North,11.5,-,N/A,,Clear,360,2013-04-29 02:55:00
10:15 PM,64.8,50.2,59,29.76,10.0,North,13.8,-,N/A,,Clear,10,2013-04-29 03:15:00
10:35 PM,67.1,42.6,41,29.76,10.0,NNE,24.2,-,N/A,,Clear,20,2013-04-29 03:35:00
10:55 PM,66.4,40.8,39,29.77,10.0,NNE,18.4,24.2,N/A,,Clear,20,2013-04-29 03:55:00
11:15 PM,65.5,40.3,40,29.77,10.0,NNE,18.4,25.3,N/A,,Clear,20,2013-04-29 04:15:00
11:35 PM,64.0,40.1,41,29.77,10.0,NNE,18.4,24.2,N/A,,Clear,20,2013-04-29 04:35:00
11:55 PM,62.8,40.1,43,29.78,10.0,North,16.1,-,N/A,,Clear,10,2013-04-29 04:55:00